[Iaude] MPEC F72: 2024 FJ2 [a=2.62,e=0.73,i=3.7,H=20.9]

mpec at cfa.harvard.edu mpec at cfa.harvard.edu
Fri Mar 22 07:53:32 EDT 2024


M.P.E.C. 2024-F72                                Issued 2024 March 22, 11:51 UT

     The Minor Planet Electronic Circulars contain information on unusual
         minor planets, routine data on comets and natural satellites,
         and occasional editorial announcements.  They are published
    on behalf of Division F of the International Astronomical Union by the
          Minor Planet Center, Smithsonian Astrophysical Observatory,
                          Cambridge, MA 02138, U.S.A.
			  
             Prepared using the Tamkin Foundation Computer Network

                              MPC at CFA.HARVARD.EDU
            URL https://www.minorplanetcenter.net/    ISSN 1523-6714

                                    2024 FJ2                                    


Observations:
     K24F02J* C2024 03 19.42950212 21 44.223-12 03 21.74         20.99wXEF072F52
     K24F02J  C2024 03 19.44010212 21 43.137-12 03 23.03         21.39wXEF072F52
     K24F02J  C2024 03 19.45064812 21 42.058-12 03 24.39         21.26wXEF072F52
     K24F02J  C2024 03 19.46123012 21 40.977-12 03 25.44         21.08wXEF072F52
     K24F02J 1C2024 03 19.52205412 21 34.688-12 03 32.36         21.05GVEF072T12
     K24F02J 1C2024 03 19.52382412 21 34.505-12 03 32.55         21.03GVEF072T12
     K24F02J  C2024 03 19.52389312 21 34.523-12 03 32.78         20.73GVEF072F52
     K24F02J  C2024 03 19.52454212 21 34.451-12 03 32.84         21.04GVEF072F52
     K24F02J KC2024 03 20.41683212 20 06.030-12 05 16.30         20.21GVEF072I52
     K24F02J KC2024 03 20.42616412 20 04.940-12 05 18.10         20.17GVEF072I52
     K24F02J KC2024 03 20.43952212 20 03.550-12 05 18.30         21.35GVEF072I52
     K24F02J KC2024 03 20.44253912 20 03.230-12 05 18.50         21.33GVEF072I52
     K24F02J KC2024 03 22.32035012 16 43.745-12 08 13.70         20.81GVEF072I52
     K24F02J  C2024 03 22.32211112 16 43.493-12 08 13.67         20.6 GVEF072H01
     K24F02J KC2024 03 22.32418812 16 43.244-12 08 13.63         20.24GVEF072I52
     K24F02J  C2024 03 22.32728512 16 42.880-12 08 14.09         20.5 GVEF072H01
     K24F02J KC2024 03 22.32802812 16 42.841-12 08 13.38         20.64GVEF072I52
     K24F02J KC2024 03 22.33186612 16 42.352-12 08 14.17         20.48GVEF072I52
     K24F02J  C2024 03 22.35026912 16 40.149-12 08 15.81         20.3 GVEF072H01
     K24F02J  C2024 03 22.35379712 16 39.742-12 08 16.12         20.2 GVEF072H01

Observer details:
F52 Pan-STARRS 2, Haleakala.  Observers J. Herman, T. Lowe, P. Minguez, A.
    Schultz, I. Smith.  Measurers K. Chambers, T. de Boer, J. Fairlamb, H.
    Gao, M. Huber, C.-C. Lin, E. Magnier, Y. Ramanjooloo, R. Wainscoat, R.
    Weryk, J. Herman, T. Lowe, P. Minguez, A. Schultz, I. Smith.  1.8-m
    Ritchey-Chretien + CCD.
H01 Magdalena Ridge Observatory, Socorro.  Observers W. H. Ryan, E. V. Ryan.
    Measurers W. H. Ryan, W. H. Ryan, E. V. Ryan.  2.4-m f/8.9 Ritchey-
    Chretien + CCD.
I52 Steward Observatory, Mt. Lemmon Station.  Observers R. A. Kowalski, D.
    Rankin.  Measurers T. Beuden, V. F. Carvajal, D. Fay, J. B. Fazekas, D. C.
    Fuls, A. R. Gibbs, A. D. Grauer, H. Groeller, J. K. Hogan, R. A. Kowalski,
    S. M. Larson, G. J. Leonard, D. Rankin, R. L. Seaman, F. C. Shelly, K. W.
    Wierzchos, R. A. Kowalski, D. Rankin.  1.0-m prime focus + CCD.
T12 University of Hawaii 88-inch telescope, Maunakea.  Observer J. Fairlamb.
    Measurers R. Weryk, J. Fairlamb, Y. Ramanjooloo, R. Wainscoat, J.
    Fairlamb.  2.24-m f/10.1 reflector + CCD.

Orbital elements:
2024 FJ2                                                 Earth MOID = 0.0551 AU
Epoch 2024 Mar. 31.0 TT = JDT 2460400.5                 Veres                   
M 341.83956              (2000.0)            P               Q                  
n   0.23194019     Peri.  346.12568     +0.33133984     +0.94198803             
a   2.6235260      Node   303.19942     -0.85943078     +0.27788454             
e   0.7331629      Incl.    3.67232     -0.38934900     +0.18825177             
P   4.25           H   20.91          G   0.15           U   9                  
Residuals in seconds of arc
240319 F52  0.0   0.1-    240320 I52  0.8+  0.1-    240322 H01  0.3+  0.1+
240319 F52  0.0   0.0     240320 I52 (0.6-  1.0-)   240322 I52  0.1+  0.5+
240319 F52  0.1+  0.1-    240320 I52  0.2-  0.0     240322 I52  0.4-  0.0
240319 F52  0.2+  0.1+    240320 I52  0.2-  0.1+    240322 H01  0.0   0.1+
240319 T12  0.0   0.0     240322 I52  0.1+  0.4-    240322 H01  0.1+  0.0
240319 T12  0.0   0.0     240322 H01  0.3+  0.1+
240319 F52  0.0   0.0     240322 I52  0.6-  0.0

Ephemeris:
2024 FJ2                 a,e,i = 2.62, 0.73, 4                   q = 0.7001
Date    TT    R. A. (2000) Decl.     Delta      r    Elong.  Phase     V
2024 02 21    12 40 59.6 -10 06 17   0.9647  1.8229   137.9    21.3    23.2
...
2024 03 07    12 35 51.3 -11 23 16   0.7204  1.6667   153.0    15.7    22.2
...
2024 03 15    12 28 02.7 -11 52 14   0.6056  1.5807   161.6    11.5    21.5
...
2024 03 21    12 19 06.5 -12 06 05   0.5273  1.5151   167.4     8.3    21.0
2024 03 22    12 17 19.3 -12 07 35   0.5150  1.5040   168.1     7.8    20.9
2024 03 23    12 15 26.6 -12 08 51   0.5028  1.4930   168.7     7.5    20.8
...
2024 03 29    12 02 03.3 -12 10 14   0.4337  1.4261   168.6     7.9    20.4
...
2024 04 06    11 37 32.9 -11 50 48   0.3527  1.3358   158.9    15.7    20.1
...
2024 04 21    10 23 18.4 -09 26 37   0.2357  1.1644   127.8    43.0    19.8

M. P. C. Staff               (C) Copyright 2024 MPC           M.P.E.C. 2024-F72





More information about the Iaude mailing list